GW1330 Weather Reports


Display with metric or nautical units.
time (UTC)temp
F
wind
direction
speed
MPH
gust
MPH
rain 1hr
in
rain 24hr
in
rain mn
in
humidity
%
barometer
mb
20260505153038 79 56 1.0 6.0 0.00 0.00 0.00 46
20260505152535 80 60 1.0 2.0 0.00 0.00 0.00 46
20260505152030 80 64 0.0 2.0 0.00 0.00 0.00 50
20260505151525 80 49 2.0 2.0 0.00 0.00 0.00 45
20260505151023 79 56 0.0 2.0 0.00 0.00 0.00 51
20260505150519 78 50 1.0 2.0 0.00 0.00 0.00 49
20260505140444 74 63 0.0 2.0 0.00 0.00 0.00 56
20260505124857 68 67 1.0 1.0 0.00 0.00 0.00 62
20260505124355 68 64 0.0 0.0 0.00 0.00 0.00 63
20260505123850 66 64 0.0 2.0 0.00 0.00 0.00 65
20260505123347 66 72 1.0 1.0 0.00 0.00 0.00 64
20260505122843 66 60 0.0 3.0 0.00 0.00 0.00 66
20260505122341 65 55 2.0 2.0 0.00 0.00 0.00 66
20260505121837 64 124 3.0 5.0 0.00 0.00 0.00 65
20260505121334 65 96 2.0 2.0 0.00 0.00 0.00 64
20260505120830 65 84 1.0 2.0 0.00 0.00 0.00 66
20260505120327 65 82 0.0 1.0 0.00 0.00 0.00 66
20260505115826 64 81 0.0 1.0 0.00 0.00 0.00 68
20260505115323 65 82 0.0 0.0 0.00 0.00 0.00 67
20260505114821 64 80 0.0 1.0 0.00 0.00 0.00 67
20260505114317 64 79 0.0 0.0 0.00 0.00 0.00 69
20260505113813 62 78 0.0 0.0 0.00 0.00 0.00 71
20260505113310 63 78 0.0 0.0 0.00 0.00 0.00 69
20260505112805 66 79 0.0 0.0 0.00 0.00 0.00 65
20260505112305 64 79 0.0 0.0 0.00 0.00 0.00 66
20260505111759 64 79 0.0 1.0 0.00 0.00 0.00 69
20260505111254 62 94 2.0 3.0 0.00 0.00 0.00 69
20260505110750 62 84 0.0 1.0 0.00 0.00 0.00 70
20260505110248 60 79 0.0 0.0 0.00 0.00 0.00 72
20260505101722 55 75 0.0 0.0 0.00 0.00 0.00 82
20260505101218 55 75 0.0 0.0 0.00 0.00 0.00 81
20260505100715 56 75 0.0 0.0 0.00 0.00 0.00 81
20260505100212 56 75 0.0 0.0 0.00 0.00 0.00 80
20260505095707 56 75 0.0 0.0 0.00 0.00 0.00 79
20260505095205 56 76 0.0 0.0 0.00 0.00 0.00 79
20260505094701 57 76 0.0 0.0 0.00 0.00 0.00 79
20260505094157 56 77 1.0 1.0 0.00 0.00 0.00 79
20260505093653 56 63 0.0 0.0 0.00 0.00 0.00 81
20260505093151 56 62 0.0 0.0 0.00 0.00 0.00 81
20260505092648 56 62 0.0 0.0 0.00 0.00 0.00 80
20260505092147 56 61 0.0 0.0 0.00 0.00 0.00 80
20260505091643 56 61 0.0 0.0 0.00 0.00 0.00 81
20260505091141 56 61 0.0 0.0 0.00 0.00 0.00 80
20260505090638 57 61 0.0 0.0 0.00 0.00 0.00 79
20260505090137 57 61 0.0 0.0 0.00 0.00 0.00 78
20260505085634 58 61 0.0 0.0 0.00 0.00 0.00 77
20260505085132 58 61 0.0 1.0 0.00 0.00 0.00 76
20260505084629 59 61 0.0 0.0 0.00 0.00 0.00 74
20260505084128 59 60 0.0 0.0 0.00 0.00 0.00 73
20260505083625 59 91 1.0 2.0 0.00 0.00 0.00 72
20260505083121 59 84 1.0 2.0 0.00 0.00 0.00 73
20260505082617 58 80 0.0 0.0 0.00 0.00 0.00 75
20260505082114 58 82 0.0 0.0 0.00 0.00 0.00 74
20260505081610 59 82 0.0 0.0 0.00 0.00 0.00 73
20260505081108 59 82 0.0 0.0 0.00 0.00 0.00 73
20260505080604 58 82 0.0 0.0 0.00 0.00 0.00 73
20260505075556 58 77 0.0 0.0 0.00 0.00 0.00 75
20260505075053 58 77 0.0 0.0 0.00 0.00 0.00 75
20260505074550 59 77 0.0 0.0 0.00 0.00 0.00 74
20260505074047 59 77 0.0 0.0 0.00 0.00 0.00 73
20260505073545 60 77 0.0 0.0 0.00 0.00 0.00 73
20260505073044 60 76 0.0 0.0 0.00 0.00 0.00 72
20260505072538 60 75 0.0 0.0 0.00 0.00 0.00 72
20260505072035 60 75 0.0 0.0 0.00 0.00 0.00 71
20260505071530 60 75 0.0 0.0 0.00 0.00 0.00 72
20260505071029 60 75 0.0 0.0 0.00 0.00 0.00 69
20260505070526 61 75 0.0 0.0 0.00 0.00 0.00 69
20260505070021 61 75 0.0 0.0 0.00 0.00 0.00 69
20260505065518 60 75 0.0 0.0 0.00 0.00 0.00 70
20260505065014 61 74 0.0 0.0 0.00 0.00 0.00 69
20260505064511 61 75 0.0 0.0 0.00 0.00 0.00 68
20260505064010 61 75 0.0 0.0 0.00 0.00 0.00 67
20260505063507 62 75 0.0 0.0 0.00 0.00 0.00 68
20260505063002 62 75 0.0 0.0 0.00 0.00 0.00 66
20260505062459 62 75 0.0 1.0 0.00 0.00 0.00 65
20260505061956 63 74 0.0 1.0 0.00 0.00 0.00 64
20260505061454 63 80 0.0 1.0 0.00 0.00 0.00 64
20260505060951 63 95 0.0 0.0 0.00 0.00 0.00 64
20260505060449 62 74 0.0 0.0 0.00 0.00 0.00 65
20260505055945 62 74 0.0 0.0 0.00 0.00 0.00 66
20260505055441 62 74 0.0 0.0 0.00 0.00 0.00 65
20260505054938 62 74 0.0 0.0 0.00 0.00 0.00 65
20260505054435 62 74 0.0 0.0 0.00 0.00 0.00 65
20260505053933 62 74 0.0 0.0 0.00 0.00 0.00 65
20260505053430 62 74 0.0 0.0 0.00 0.00 0.00 65
20260505052927 62 74 0.0 0.0 0.00 0.00 0.00 64
20260505052424 62 74 0.0 0.0 0.00 0.00 0.00 64
20260505051921 62 74 0.0 0.0 0.00 0.00 0.00 65
20260505051418 62 74 0.0 0.0 0.00 0.00 0.00 65
20260505050916 62 74 0.0 0.0 0.00 0.00 0.00 64
20260505050414 63 74 0.0 0.0 0.00 0.00 0.00 64
20260505041341 63 74 0.0 0.0 0.00 0.00 0.00 61
20260505040839 62 74 0.0 0.0 0.00 0.00 0.00 63
20260505040336 62 74 0.0 0.0 0.00 0.00 0.00 63
20260505035833 62 74 0.0 1.0 0.00 0.00 0.00 61
20260505035328 62 74 0.0 1.0 0.00 0.00 0.00 61
20260505034826 62 77 0.0 1.0 0.00 0.00 0.00 61
20260505034322 61 76 0.0 0.0 0.00 0.00 0.00 62
20260505033820 62 76 0.0 1.0 0.00 0.00 0.00 62
20260505033316 61 78 0.0 2.0 0.00 0.00 0.00 61
20260505032815 60 74 0.0 0.0 0.00 0.00 0.00 63
20260505032311 60 74 0.0 0.0 0.00 0.00 0.00 62
20260505031808 61 74 0.0 0.0 0.00 0.00 0.00 61
20260505031304 62 74 0.0 0.0 0.00 0.00 0.00 60
20260505030802 62 74 0.0 0.0 0.00 0.00 0.00 59
20260505030258 62 74 0.0 0.0 0.00 0.00 0.00 60
20260505025753 62 74 0.0 0.0 0.00 0.00 0.00 60
20260505025251 62 74 0.0 0.0 0.00 0.00 0.00 59
20260505024749 62 74 0.0 0.0 0.00 0.00 0.00 60
20260505024246 63 74 0.0 0.0 0.00 0.00 0.00 60
20260505023744 63 74 0.0 0.0 0.00 0.00 0.00 60
20260505023241 64 75 0.0 1.0 0.00 0.00 0.00 54
20260505022738 63 75 1.0 1.0 0.00 0.00 0.00 55
20260505022235 63 61 0.0 0.0 0.00 0.00 0.00 55
20260505021731 63 61 0.0 0.0 0.00 0.00 0.00 57
20260505021229 65 61 0.0 1.0 0.00 0.00 0.00 56
20260505020724 65 77 0.0 1.0 0.00 0.00 0.00 55
20260505020219 66 78 0.0 0.0 0.00 0.00 0.00 52
20260505015717 66 78 0.0 1.0 0.00 0.00 0.00 50
20260505015214 64 73 0.0 1.0 0.00 0.00 0.00 53
20260505014711 64 72 0.0 0.0 0.00 0.00 0.00 54
20260505014209 64 72 0.0 0.0 0.00 0.00 0.00 55
20260505013705 64 72 0.0 0.0 0.00 0.00 0.00 56
20260505013202 65 72 0.0 0.0 0.00 0.00 0.00 53
20260505012700 65 73 0.0 0.0 0.00 0.00 0.00 52
20260505012157 65 73 0.0 0.0 0.00 0.00 0.00 52
20260505011653 66 73 0.0 0.0 0.00 0.00 0.00 51
20260505011150 65 73 0.0 0.0 0.00 0.00 0.00 51
20260505010645 66 73 0.0 0.0 0.00 0.00 0.00 51
20260505010143 65 82 1.0 2.0 0.00 0.00 0.00 51
20260505005638 66 66 0.0 0.0 0.00 0.00 0.00 52
20260505005136 66 66 0.0 0.0 0.00 0.00 0.00 51
20260505004633 67 66 0.0 0.0 0.00 0.00 0.00 50
20260505004129 68 78 0.0 0.0 0.00 0.00 0.00 48
20260505003627 68 84 1.0 2.0 0.00 0.00 0.00 46
20260505003124 69 72 0.0 0.0 0.00 0.00 0.00 46
20260505002620 69 72 0.0 0.0 0.00 0.00 0.00 46
20260505002118 69 78 0.0 3.0 0.00 0.00 0.00 44
20260505001615 69 70 0.0 0.0 0.00 0.00 0.00 45
20260505001113 69 75 0.0 0.0 0.00 0.00 0.00 44
20260505000610 70 65 0.0 0.0 0.00 0.00 0.00 45
20260505000108 70 93 1.0 2.0 0.00 0.00 0.00 42
20260504235604 70 70 0.0 1.0 0.00 0.00 0.00 43
20260504235100 70 109 2.0 2.0 0.00 0.00 0.00 42
20260504234557 71 68 0.0 1.0 0.00 0.00 0.00 42
20260504234055 71 69 1.0 1.0 0.00 0.00 0.00 42
20260504233550 71 135 3.0 5.0 0.00 0.00 0.00 41
20260504233047 71 73 0.0 1.0 0.00 0.00 0.00 42
20260504232544 71 70 1.0 5.0 0.00 0.00 0.00 41
20260504232042 71 82 2.0 2.0 0.00 0.00 0.00 41
20260504231538 72 196 1.0 3.0 0.00 0.00 0.00 40
20260504231034 72 97 2.0 2.0 0.00 0.00 0.00 41
20260504230530 72 73 1.0 2.0 0.00 0.00 0.00 40
20260504230029 72 71 0.0 6.0 0.00 0.00 0.00 42
20260504225526 72 81 1.0 8.0 0.00 0.00 0.00 40
20260504225023 72 95 6.0 10.0 0.00 0.00 0.00 40
20260504224520 72 85 3.0 7.0 0.00 0.00 0.00 41
20260504224017 72 63 1.0 13.0 0.00 0.00 0.00 40
20260504223513 72 59 0.0 5.0 0.00 0.00 0.00 41
20260504223009 72 189 2.0 6.0 0.00 0.00 0.00 40
20260504222506 72 68 2.0 3.0 0.00 0.00 0.00 40
20260504222004 72 83 2.0 5.0 0.00 0.00 0.00 41
20260504221501 72 39 1.0 3.0 0.00 0.00 0.00 43
20260504220958 73 15 1.0 7.0 0.00 0.00 0.00 40
20260504220454 73 62 1.0 6.0 0.00 0.00 0.00 39
20260504215951 73 63 1.0 5.0 0.00 0.00 0.00 39
20260504215448 73 50 1.0 3.0 0.00 0.00 0.00 40
20260504214944 73 111 6.0 8.0 0.00 0.00 0.00 39
20260504214441 73 109 2.0 2.0 0.00 0.00 0.00 39
20260504213938 73 55 1.0 3.0 0.00 0.00 0.00 39
20260504213433 73 176 4.0 6.0 0.00 0.00 0.00 39
20260504212931 73 175 4.0 6.0 0.00 0.00 0.00 39
20260504212427 73 89 2.0 3.0 0.00 0.00 0.00 39
20260504211925 73 201 4.0 7.0 0.00 0.00 0.00 39
20260504211421 73 92 2.0 6.0 0.00 0.00 0.00 39
20260504210918 73 166 4.0 6.0 0.00 0.00 0.00 39
20260504210415 74 55 1.0 1.0 0.00 0.00 0.00 41
20260504205912 73 58 0.0 3.0 0.00 0.00 0.00 40
20260504205410 73 92 0.0 8.0 0.00 0.00 0.00 39
20260504204908 73 56 0.0 5.0 0.00 0.00 0.00 38
20260504204406 73 192 3.0 7.0 0.00 0.00 0.00 38
20260504203905 73 67 4.0 6.0 0.00 0.00 0.00 39
20260504203402 73 42 2.0 3.0 0.00 0.00 0.00 39
20260504202858 73 67 1.0 3.0 0.00 0.00 0.00 38
20260504202355 73 9 1.0 9.0 0.00 0.00 0.00 40
20260504201851 73 140 5.0 7.0 0.00 0.00 0.00 38
20260504201349 73 113 3.0 3.0 0.00 0.00 0.00 38
20260504200846 74 53 0.0 1.0 0.00 0.00 0.00 39
20260504200343 74 73 1.0 3.0 0.00 0.00 0.00 38
20260504195839 74 45 1.0 1.0 0.00 0.00 0.00 37
20260504195334 73 57 0.0 2.0 0.00 0.00 0.00 38
20260504194832 73 71 0.0 1.0 0.00 0.00 0.00 37
20260504194328 73 204 2.0 5.0 0.00 0.00 0.00 39
20260504193824 73 57 0.0 1.0 0.00 0.00 0.00 39
20260504193321 74 33 2.0 2.0 0.00 0.00 0.00 40
20260504192820 73 50 0.0 1.0 0.00 0.00 0.00 39
20260504192318 72 82 0.0 3.0 0.00 0.00 0.00 40
20260504191816 72 113 1.0 3.0 0.00 0.00 0.00 40
20260504191313 73 81 0.0 2.0 0.00 0.00 0.00 40
20260504190808 73 45 1.0 2.0 0.00 0.00 0.00 40
20260504190305 73 38 2.0 2.0 0.00 0.00 0.00 39
20260504185801 73 78 1.0 8.0 0.00 0.00 0.00 40
20260504185258 73 54 1.0 8.0 0.00 0.00 0.00 39
20260504184754 72 52 0.0 8.0 0.00 0.00 0.00 39
20260504184250 73 105 1.0 2.0 0.00 0.00 0.00 38
20260504183746 72 72 1.0 3.0 0.00 0.00 0.00 39
20260504183243 72 173 4.0 6.0 0.00 0.00 0.00 40
20260504182741 73 149 4.0 5.0 0.00 0.00 0.00 40
20260504182238 73 94 2.0 5.0 0.00 0.00 0.00 41
20260504181736 73 124 4.0 7.0 0.00 0.00 0.00 38
20260504181233 72 56 0.0 0.0 0.00 0.00 0.00 41
20260504180732 73 145 4.0 6.0 0.00 0.00 0.00 38
20260504180231 72 135 3.0 5.0 0.00 0.00 0.00 38
20260504175728 71 45 1.0 3.0 0.00 0.00 0.00 40
20260504175224 72 177 3.0 5.0 0.00 0.00 0.00 39
20260504174723 71 51 1.0 3.0 0.00 0.00 0.00 38
20260504174220 71 91 3.0 6.0 0.00 0.00 0.00 40
20260504173716 73 40 2.0 3.0 0.00 0.00 0.00 37
20260504173213 71 67 0.0 3.0 0.00 0.00 0.00 40
20260504172710 72 36 1.0 3.0 0.00 0.00 0.00 39
20260504172206 73 53 0.0 2.0 0.00 0.00 0.00 39
20260504171703 71 68 0.0 2.0 0.00 0.00 0.00 44
20260504171200 72 31 2.0 6.0 0.00 0.00 0.00 39
20260504170656 71 77 3.0 6.0 0.00 0.00 0.00 38
20260504170154 71 189 4.0 5.0 0.00 0.00 0.00 40
20260504160112 70 162 6.0 8.0 0.00 0.00 0.00 39